Time,TemperatureF,DewpointF,PressureIn,WindDirection,WindDirectionDegrees,WindSpeedMPH,WindSpeedGustMPH,Humidity,HourlyPrecipIn,Conditions,Clouds,dailyrainin,SoftwareType,DateUTC
2013-02-02 07:33:00,37.0,36.0,30.22,SE,141,0.0,0.0,96,0.00,,,0.00,,2013-02-02 15:33:00,
2013-02-02 07:42:00,37.0,36.0,30.22,SE,141,0.0,0.0,96,0.00,,,0.00,,2013-02-02 15:42:00,
2013-02-02 07:52:00,37.0,36.0,30.22,SE,141,0.0,0.0,97,0.00,,,0.00,,2013-02-02 15:52:00,
2013-02-02 08:02:00,38.0,37.0,30.22,SE,142,0.0,0.0,97,0.00,,,0.00,,2013-02-02 16:02:00,
2013-02-02 08:11:00,38.0,37.0,30.22,SE,142,0.0,0.0,97,0.00,,,0.00,,2013-02-02 16:11:00,
2013-02-02 08:21:00,38.0,37.0,30.22,SE,142,0.0,0.0,97,0.00,,,0.00,,2013-02-02 16:21:00,
2013-02-02 08:31:00,38.0,37.0,30.23,SE,142,0.0,0.0,97,0.00,,,0.00,,2013-02-02 16:31:00,
2013-02-02 08:42:00,38.0,37.0,30.23,SE,142,0.0,0.0,97,0.00,,,0.00,,2013-02-02 16:42:00,
2013-02-02 08:51:00,39.0,38.0,30.23,SE,142,0.0,0.0,97,0.00,,,0.00,,2013-02-02 16:51:00,
2013-02-02 09:02:00,39.0,38.0,30.24,SE,142,0.0,0.0,97,0.00,,,0.00,,2013-02-02 17:02:00,
2013-02-02 09:11:00,39.0,38.0,30.24,SE,142,0.0,0.0,97,0.00,,,0.00,,2013-02-02 17:11:00,
2013-02-02 09:21:00,40.0,39.0,30.25,SE,141,0.0,0.0,97,0.00,,,0.00,,2013-02-02 17:21:00,
2013-02-02 09:32:00,41.0,40.0,30.26,SE,141,0.0,0.0,97,0.00,,,0.00,,2013-02-02 17:32:00,
2013-02-02 09:41:00,41.0,40.0,30.26,SE,141,0.0,0.0,97,0.00,,,0.00,,2013-02-02 17:41:00,
2013-02-02 09:52:00,42.0,41.0,30.26,SE,142,0.0,0.0,96,0.00,,,0.00,,2013-02-02 17:52:00,
2013-02-02 10:02:00,44.0,42.0,30.26,SE,142,0.0,0.0,94,0.00,,,0.00,,2013-02-02 18:02:00,
2013-02-02 10:11:00,44.0,42.0,30.26,SE,142,0.0,0.0,94,0.00,,,0.00,,2013-02-02 18:11:00,
2013-02-02 10:21:00,46.0,44.0,30.27,SE,142,0.0,0.0,91,0.00,,,0.00,,2013-02-02 18:21:00,
2013-02-02 10:31:00,46.0,44.0,30.27,SE,142,0.0,0.0,91,0.00,,,0.00,,2013-02-02 18:31:00,
2013-02-02 10:41:00,46.0,44.0,30.27,SE,142,0.0,0.0,91,0.00,,,0.00,,2013-02-02 18:41:00,
2013-02-02 10:52:00,47.0,44.0,30.26,South,175,0.0,2.0,89,0.00,,,0.00,,2013-02-02 18:52:00,
2013-02-02 11:02:00,49.0,46.0,30.26,WSW,247,0.0,2.0,89,0.00,,,0.00,,2013-02-02 19:02:00,
2013-02-02 11:11:00,52.0,47.0,30.25,WSW,240,1.0,2.0,84,0.00,,,0.00,,2013-02-02 19:11:00,
2013-02-02 11:21:00,52.0,47.0,30.25,WSW,240,1.0,2.0,84,0.00,,,0.00,,2013-02-02 19:21:00,
2013-02-02 11:32:00,53.0,46.0,30.25,SSE,166,1.0,4.0,78,0.00,,,0.00,,2013-02-02 19:32:00,
2013-02-02 11:41:00,53.0,46.0,30.25,SSE,166,1.0,4.0,78,0.00,,,0.00,,2013-02-02 19:41:00,
2013-02-02 11:51:00,56.0,48.0,30.24,SSE,157,1.0,3.0,74,0.00,,,0.00,,2013-02-02 19:51:00,
2013-02-02 12:01:00,57.0,48.0,30.24,South,186,3.0,5.0,73,0.00,,,0.00,,2013-02-02 20:01:00,
2013-02-02 12:21:00,57.0,48.0,30.23,South,186,2.0,5.0,72,0.00,,,0.00,,2013-02-02 20:21:00,
2013-02-02 12:32:00,57.0,48.0,30.23,SE,146,4.0,7.0,73,0.00,,,0.00,,2013-02-02 20:32:00,
2013-02-02 12:41:00,57.0,48.0,30.23,SE,146,4.0,7.0,73,0.00,,,0.00,,2013-02-02 20:41:00,
2013-02-02 12:52:00,57.0,49.0,30.22,South,173,2.0,6.0,74,0.00,,,0.00,,2013-02-02 20:52:00,
2013-02-02 13:01:00,56.0,48.0,30.22,West,270,1.0,5.0,75,0.00,,,0.00,,2013-02-02 21:01:00,
2013-02-02 13:11:00,56.0,48.0,30.22,West,270,1.0,5.0,75,0.00,,,0.00,,2013-02-02 21:11:00,
2013-02-02 13:21:00,57.0,48.0,30.22,West,270,2.0,4.0,72,0.00,,,0.00,,2013-02-02 21:21:00,
2013-02-02 13:32:00,56.0,49.0,30.21,West,259,1.0,4.0,76,0.00,,,0.00,,2013-02-02 21:32:00,
2013-02-02 13:42:00,56.0,49.0,30.21,West,259,1.0,4.0,76,0.00,,,0.00,,2013-02-02 21:42:00,
2013-02-02 13:51:00,57.0,49.0,30.21,ESE,116,2.0,5.0,74,0.00,,,0.00,,2013-02-02 21:51:00,
2013-02-02 14:02:00,55.0,48.0,30.20,SE,134,1.0,6.0,78,0.00,,,0.00,,2013-02-02 22:02:00,
2013-02-02 14:11:00,55.0,48.0,30.20,SE,134,1.0,6.0,78,0.00,,,0.00,,2013-02-02 22:11:00,
2013-02-02 14:21:00,55.0,48.0,30.20,SE,134,1.0,6.0,78,0.00,,,0.00,,2013-02-02 22:21:00,
2013-02-02 14:32:00,55.0,48.0,30.20,SE,134,1.0,6.0,78,0.00,,,0.00,,2013-02-02 22:32:00,
2013-02-02 17:11:00,54.0,48.0,30.19,SE,140,0.0,0.0,81,0.00,,,0.00,,2013-02-03 01:11:00,
2013-02-02 17:21:00,54.0,48.0,30.19,SE,140,0.0,0.0,81,0.00,,,0.00,,2013-02-03 01:21:00,
2013-02-02 17:32:00,53.0,48.0,30.19,SE,135,2.0,4.0,83,0.00,,,0.00,,2013-02-03 01:32:00,
2013-02-02 17:41:00,53.0,48.0,30.19,SE,135,2.0,4.0,83,0.00,,,0.00,,2013-02-03 01:41:00,
2013-02-02 17:51:00,53.0,48.0,30.20,SE,140,2.0,5.0,82,0.00,,,0.00,,2013-02-03 01:51:00,
2013-02-02 18:01:00,52.0,47.0,30.20,SE,145,1.0,7.0,83,0.00,,,0.00,,2013-02-03 02:01:00,
2013-02-02 18:11:00,52.0,47.0,30.20,SE,145,1.0,7.0,83,0.00,,,0.00,,2013-02-03 02:11:00,
2013-02-02 18:21:00,51.0,46.0,30.20,ESE,106,1.0,2.0,84,0.00,,,0.00,,2013-02-03 02:21:00,
2013-02-02 18:31:00,50.0,46.0,30.21,East,96,0.0,2.0,86,0.00,,,0.00,,2013-02-03 02:31:00,
2013-02-02 18:41:00,50.0,46.0,30.21,East,96,0.0,2.0,86,0.00,,,0.00,,2013-02-03 02:41:00,
2013-02-02 18:52:00,49.0,45.0,30.21,SE,126,0.0,2.0,86,0.00,,,0.00,,2013-02-03 02:52:00,
2013-02-02 19:01:00,48.0,45.0,30.21,SE,126,0.0,1.0,88,0.00,,,0.00,,2013-02-03 03:01:00,
2013-02-02 19:11:00,47.0,44.0,30.21,SE,126,0.0,1.0,88,0.00,,,0.00,,2013-02-03 03:11:00,
2013-02-02 19:21:00,47.0,44.0,30.21,SE,126,0.0,1.0,88,0.00,,,0.00,,2013-02-03 03:21:00,
2013-02-02 19:31:00,45.0,42.0,30.21,SE,126,0.0,1.0,90,0.00,,,0.00,,2013-02-03 03:31:00,
2013-02-02 19:41:00,45.0,42.0,30.21,SE,126,0.0,1.0,90,0.00,,,0.00,,2013-02-03 03:41:00,
2013-02-02 19:51:00,45.0,43.0,30.21,SE,126,0.0,1.0,91,0.00,,,0.00,,2013-02-03 03:51:00,
2013-02-02 20:01:00,45.0,43.0,30.21,SE,126,0.0,1.0,91,0.00,,,0.00,,2013-02-03 04:01:00,
2013-02-02 20:11:00,45.0,43.0,30.21,SE,126,0.0,1.0,91,0.00,,,0.00,,2013-02-03 04:11:00,
2013-02-02 20:21:00,45.0,43.0,30.21,SE,126,0.0,1.0,91,0.00,,,0.00,,2013-02-03 04:21:00,